Regional Weather Roundup
Issued by NWS

Home | Current Version | Previous Version | Text Only | Print | Product List | Glossary Off
Versions: 1 2 3 4 5 6 7 8 9 10 11 12 13 14 15 16 17 18 19 20 21 22 23 24 25 26 27 28 29 30 31 32 33 34 35 36 37 38 39 40 41 42 43 44 45 46 47 48 49 50

000
ASUS43 KLOT 250108
RWRIL

ILLINOIS REGIONAL WEATHER ROUNDUP
NATIONAL WEATHER SERVICE CHICAGO/ROMEOVILLE IL
700 PM CST FRI FEB 24 2017

NOTE: "FAIR" INDICATES FEW OR NO CLOUDS BELOW 12,000 FEET WITH NO
SIGNIFICANT WEATHER AND/OR OBSTRUCTIONS TO VISIBILITY.

* THESE STATIONS ARE NOT UNDER NWS QUALITY CONTROL. THEY ALSO MAY NOT
  REPORT WEATHER SUCH AS PRECIPITATION OR FOG.

ILZ001-002-007-009-015-016-024-250200-
NORTHWEST ILLINOIS

CITY           SKY/WX    TMP DP  RH WIND       PRES   REMARKS
MOLINE         CLOUDY    36  32  85 NW8       29.64R FOG     WCI  30
STERLING*      MIX PCPN  32  31  96 N10       29.62R WCI  24
$$

ILZ003-004-008-010-011-017-018-250200-
NORTH CENTRAL ILLINOIS

CITY           SKY/WX    TMP DP  RH WIND       PRES   REMARKS
ROCKFORD       FRZ DRZL  32  29  88 N15       29.62R FOG     WCI  22
FREEPORT*      CLOUDY    29  28  95 N8        29.62S WCI  21
ROCHELLE*      LGT RAIN  32  32  99 N14       29.59R WCI  22
DE KALB*       LGT SNOW  34  33  97 NW12      29.57R WCI  25
PERU*          CLOUDY    37  36  94 W12       29.60S FOG     WCI  30
$$

ILZ005-006-012>014-019>023-250200-
NORTHEAST ILLINOIS

CITY           SKY/WX    TMP DP  RH WIND       PRES   REMARKS
CHICAGO-OHARE  DRIZZLE   39  36  89 W9        29.53S FOG     WCI  33
CHICAGO-MIDWAY CLOUDY    42  36  79 W14       29.54R HAZE
AURORA         LGT RAIN  38  36  92 W10       29.57R WCI  31
LANSING*       CLOUDY    43  40  88 W17       29.55R
JOLIET*        CLOUDY    42  39  89 W9        29.57R
WAUKEGAN       CLOUDY    35  33  92 NW8       29.53S FOG     WCI  29
DUPAGE AIRPORT CLOUDY    37  34  89 W9        29.54R FOG     WCI  30
KANKAKEE*      CLOUDY    43  35  72 W23G32    29.58R
WHEELING       CLOUDY    36  35  96 NW8       29.55S WCI  30
MORRIS*        CLOUDY    40  38  92 W15G22    29.57R
ROMEOVILLE*    CLOUDY    40  40 100 W15       29.56R
NORTHERLY ISL    N/A     41  38  89 SW8         N/A
$$

LMZ740>746-250200-
SOUTHERN LAKE MICHIGAN

STATION/POSITION SKY/WX   TEMP    WIND        PRES    VSBY  WAVE
                          AIR SEA DIR/SP/G                  HT/PER
                          (F)     (DEG/KT/KT) (MB)    (MI)  (FT/S)
HARRISON CRIB              39     310/ 12/ 13   N/A
BURNHAM HARBOR             41     260/  7/ 13   N/A
CALUMET HARBOR             43     250/  8/ 13  999.6S
BURNS HARBOR               36     330/  5/ 10 1001.4R
MICHIGAN CITY              36     260/  9/  9   N/A
$$

ILZ025>027-034>036-040-047-049-050-058-095>099-250200-
WEST-CENTRAL ILLINOIS

CITY           SKY/WX    TMP DP  RH WIND       PRES   REMARKS
QUINCY         CLOUDY    38  35  89 W18       29.69R WCI  28
GALESBURG*     CLOUDY    36  35  94 W12       29.64R WCI  28
MACOMB*        CLOUDY    37  35  94 W16       29.67R WCI  27
JACKSONVILLE*  MOCLDY    41  35  79 W15G26    29.67R
PITTSFIELD*    MOCLDY    41  33  74 W16G26    29.70R
$$

ILZ028>032-037-038-041>044-048-051>054-059>061-250200-
CENTRAL ILLINOIS

CITY           SKY/WX    TMP DP  RH WIND       PRES   REMARKS
PONTIAC        CLOUDY    43  38  83 W16       29.60R
BLOOMINGTON    CLOUDY    43  36  76 W17       29.61R
DECATUR        PTCLDY    46  34  62 W16G25    29.64R
PEORIA         CLOUDY    41  36  82 W15       29.63R
LACON*         CLOUDY    39  37  91 W9        29.61R WCI  33
LINCOLN*       RAIN      45  42  88 W9G17     29.64R
SPRINGFIELD    MOCLDY    45  34  65 W15       29.65R
TAYLORVILLE    PTCLDY    44  32  63 W18G24    29.67R
$$

ILZ033-039-045-046-055>057-062-063-250200-
EAST-CENTRAL ILLINOIS

CITY           SKY/WX    TMP DP  RH WIND       PRES   REMARKS
CHAMPAIGN      CLOUDY    47  37  68 W17       29.62R
RANTOUL*       CLOUDY    46  39  75 W13       29.61R
MATTOON        MOCLDY    46  38  73 W15G25    29.64R
PARIS*         CLOUDY    48  44  84 W13       29.62R
$$

ILZ079-100>102-250200-
SOUTHWEST ILLINOIS

CITY           SKY/WX    TMP DP  RH WIND       PRES   REMARKS
ALTON          CLEAR     45  30  57 W13       29.71R
BELLEVILLE     PTCLDY    47  33  56 W13G20    29.70R
CAHOKIA*       CLEAR     47  29  49 W14G21    29.72R
SPARTA*        PTCLDY    51  34  51 W13G20    29.71R
$$

ILZ064>066-069>071-074>076-080>082-084>086-088>090-092>094-250200-
SOUTH-CENTRAL ILLINOIS

CITY           SKY/WX    TMP DP  RH WIND       PRES   REMARKS
CARBONDALE     MOCLDY    53  39  59 W6        29.68R
CAIRO*         CLOUDY    59  40  48 W15G21    29.69R
EFFINGHAM*     CLOUDY    48  42  79 W13       29.67R
MARION         CLOUDY    54  48  82 W5        29.68R
MT. VERNON     MOCLDY    52  39  61 W8        29.67R
CENTRALIA*     PTCLDY    52  41  66 NW10      29.67R
SALEM*         PTCLDY    51  41  69 W9        29.68R
METROPOLIS*    PTCLDY    61  55  81 W5        29.67R
$$

ILZ067-068-072-073-078-083-087-091-250200-
SOUTHEAST ILLINOIS

CITY           SKY/WX    TMP DP  RH WIND       PRES   REMARKS
LAWRENCEVILLE  LGT RAIN  52  48  86 W13       29.64R
FLORA*         CLOUDY    53  45  72 W9        29.65R
FAIRFIELD*     CLOUDY    52  46  80 CALM      29.66R
HARRISBURG*    CLOUDY    55  53  93 W3        29.67R
ROBINSON*      DRIZZLE   50  46  88 W6        29.64S
CARMI*         CLOUDY    53  50  90 W6        29.66R
$$

ABBREVIATIONS USED IN REMARKS
   TC - TEMPERATURE IN CELSIUS
  WCI - WIND CHILL INDEX
   HX - HEAT INDEX
  VSB - VISIBILITY
$$




USA.gov is the U.S. government's official web portal to all federal, state and local government web resources and services.